VE2JOS Weather Reports


time (UTC)temp
C
wind
direction
speed
KPH
gust
KPH
rain 1hr
cm
rain 24hr
cm
rain mn
cm
humidity
%
barometer
mb
20260504081521 6 257 0.0 1.6 0.00 0.00 0.00 71
20260504080521 6 259 0.0 1.6 0.00 0.00 0.00 70
20260504050520 5 260 0.0 0.0 0.00 0.00 0.00 70
20260504045520 5 0.0 0.0 0.00 0.00 0.00 69
20260504044520 6 0.0 0.0 0.00 0.00 0.00 68
20260504043520 6 259 0.0 1.6 0.00 0.00 0.00 67
20260504042541 5 0.0 0.0 0.00 0.00 0.00 68
20260504041520 6 0.0 0.0 0.00 0.00 0.00 66
20260504040520 6 0.0 0.0 0.00 0.00 0.00 65
20260504035540 6 0.0 0.0 0.00 0.00 0.00 62
20260504034520 7 0.0 0.0 0.00 0.00 0.00 61
20260504033520 7 0.0 0.0 0.00 0.00 0.00 60
20260504032520 7 0.0 0.0 0.00 0.00 0.00 61
20260504031520 7 259 0.0 1.6 0.00 0.00 0.00 59
20260504030520 7 260 0.0 1.6 0.00 0.00 0.00 59
20260504025520 7 0.0 0.0 0.00 0.00 0.00 60
20260504024520 7 259 0.0 1.6 0.00 0.00 0.00 60
20260504023520 8 0.0 0.0 0.00 0.00 0.00 61
20260504022521 8 260 0.0 1.6 0.00 0.00 0.00 60
20260504021520 8 0.0 0.0 0.00 0.00 0.00 59
20260504020520 8 0.0 0.0 0.00 0.00 0.00 57
20260504015520 8 0.0 0.0 0.00 0.00 0.00 56
20260504014520 9 247 0.0 3.2 0.00 0.00 0.00 52
20260504013520 9 231 1.6 3.2 0.00 0.00 0.00 51
20260504012520 9 0.0 0.0 0.00 0.00 0.00 52
20260504011540 10 250 0.0 1.6 0.00 0.00 0.00 49
20260504010520 10 0.0 0.0 0.00 0.00 0.00 48
20260504005540 10 241 0.0 1.6 0.00 0.00 0.00 47
20260504004520 10 241 0.0 3.2 0.00 0.00 0.00 46
20260504003520 10 260 0.0 3.2 0.00 0.00 0.00 46
20260504002520 10 245 0.0 1.6 0.00 0.00 0.00 46
20260504001540 10 258 0.0 1.6 0.00 0.00 0.00 45
20260504000520 11 0.0 0.0 0.00 0.00 0.00 45
20260503235540 11 235 1.6 3.2 0.00 0.00 0.00 44
20260503234520 11 253 0.0 1.6 0.00 0.00 0.00 43
20260503233520 11 208 1.6 4.8 0.00 0.00 0.00 42
20260503232520 11 247 0.0 3.2 0.00 0.00 0.00 43
20260503231540 11 0.0 0.0 0.00 0.00 0.00 42
20260503230520 12 258 0.0 1.6 0.00 0.05 0.00 42
20260503225520 12 261 0.0 1.6 0.00 0.05 0.00 41
20260503224520 12 253 0.0 3.2 0.00 0.05 0.00 40
20260503223520 12 239 1.6 3.2 0.00 0.05 0.00 38
20260503222520 12 245 0.0 3.2 0.00 0.05 0.00 39
20260503221520 12 229 1.6 3.2 0.00 0.05 0.00 38
20260503220521 12 252 0.0 3.2 0.00 0.08 0.00 38
20260503215520 12 228 0.0 4.8 0.00 0.08 0.00 38
20260503214520 12 255 1.6 3.2 0.00 0.08 0.00 38
20260503213520 12 241 0.0 1.6 0.00 0.08 0.00 39
20260503212520 12 0.0 0.0 0.00 0.08 0.00 38
20260503211520 12 259 0.0 3.2 0.00 0.08 0.00 40
20260503210520 12 259 0.0 3.2 0.00 0.08 0.00 42
20260503205540 12 298 1.6 4.8 0.00 0.08 0.00 42
20260503204520 12 272 3.2 6.4 0.00 0.08 0.00 41
20260503203540 13 272 1.6 3.2 0.00 0.10 0.00 38
20260503202520 13 239 1.6 4.8 0.00 0.13 0.00 38
20260503201540 13 248 1.6 4.8 0.00 0.13 0.00 39
20260503200522 13 258 1.6 6.4 0.00 0.13 0.00 39
20260503195520 13 278 3.2 9.7 0.00 0.13 0.00 39
20260503194520 13 268 1.6 6.4 0.00 0.13 0.00 41
20260503193519 12 268 1.6 3.2 0.00 0.13 0.00 43
20260503192520 12 271 0.0 1.6 0.00 0.13 0.00 45
20260503191519 11 269 1.6 3.2 0.00 0.13 0.00 44
20260503190520 11 275 3.2 8.0 0.00 0.13 0.00 44
20260503185520 12 261 1.6 4.8 0.00 0.13 0.00 44
20260503184520 13 271 1.6 6.4 0.00 0.13 0.00 43
20260503183521 12 282 3.2 8.0 0.00 0.13 0.00 45
20260503182519 11 263 1.6 4.8 0.00 0.13 0.00 45
20260503181520 11 264 3.2 6.4 0.00 0.13 0.00 45
20260503180519 12 263 3.2 4.8 0.00 0.13 0.00 44
20260503175540 12 278 3.2 4.8 0.00 0.13 0.00 45
20260503174520 10 265 3.2 8.0 0.00 0.13 0.00 46
20260503173520 11 269 3.2 6.4 0.00 0.13 0.00 47
20260503172520 12 268 3.2 6.4 0.00 0.13 0.00 46
20260503171540 11 269 3.2 6.4 0.00 0.13 0.00 47
20260503170520 10 270 3.2 8.0 0.00 0.13 0.00 48
20260503150520 11 262 1.6 4.8 0.00 0.13 0.00 51
20260503130520 7 270 1.6 3.2 0.00 0.13 0.00 65
20260503110520 4 0.0 0.0 0.00 0.13 0.00 82